National Oceanic Atmosphere Administration National Weather Service Headquarters National Weather Service Headquarters
NOAA logo WFO Anchorage Scalable transition graphic NWS logo
Transition from title bar to navgation bar   Aviation Weather 07 AKST 
blankspace Home   |   Mobile   |   Social Media   |   Mesonet   |   Surface Map   |   Radar   |   Submit Storm Reports   |   News =16 GMT 

LocalForecast by City, St or Zip Code

spacer

Forecasts/Products
  Public
  Forecast Discussion
    - With Glossary
  Aviation
  Marine
  Hydrology(RFC)
  Rivers & Lakes AHPS
  Ice Desk
  TV Weather
  Fire Weather
  Avalanche
  Travel 511
  Graphical
  xml logo RSS Feeds
  Marine FTPMail

spacer

Data
  Mesonet
  Model Graphics
  Local Model
  Observations
  Marine Obs
  Satellite/Radar
  Vent Factor
  Soaring Index
  Weather Links

spacer

Climate
  PAFC Climate
  Interactive Climate
  PAFC Records
  Local
  National
  More

spacer

Outreach
  About Us
  Community Outreach
  Kids' Page
  Tour/Speaker Request
  Weather Classroom
  Social Media

spacer

Reports
  COOP Observers
  Local Storm Reports
  Spotter Page
  Submit a Storm Report

spacer

Miscellaneous
  Archived Alaska Weather Stories
  Student Career Opportunities
  Research Papers

spacer

Print Friendly/
Low Bandwidth

  Public Forecasts
  Marine Forecasts

spacer

Contact Us
  mailto pafcweb

spacer

Facebook Follow the National Weather Service in Alaska on Twitter
USA.gov is the U.S. government's official web portal to all federal, state and local government web resources and services.


 ICAO ID:   AAWU Graphics

Internet access to TAFs and METAR observations is for planning purposes only. We can not guarantee the timeliness of internet products. Before flying please get a formal pilot briefing (1-800-992-7433) and ALWAYS file a Flight Plan!Pilot briefings are provided to licensed aircraft pilots, ONLY! Others may not use the above number to obtain weather information.

Check out the Key to TAFs and METARs for help with decoding the information.

A 12 hour summary of TAFs can be found here.

PAFA TAF
PAFA 221152Z 2212/2318  00000KT P6SM FEW010 FEW050 BKN250
     FM230600 00000KT P6SM BKN050 BKN100=


METAR PAFA 221553Z 00000KT 10SM FEW010 FEW060 BKN250 M24/M27 A2978 RMK
     AO2 SLP102 POWER PLANT PLUME FEW010 T12391272=
METAR PAFA 221553Z 00000KT 10SM FEW010 FEW060 BKN250 M24/M27 A2978=
METAR PAFA 221453Z 00000KT 10SM FEW010 FEW060 BKN250 M24/M28 A2977 RMK
     AO2 SLP097 POWER PLANT PLUME FEW010 T12391278 51021=
METAR PAFA 221453Z 00000KT 10SM FEW010 FEW060 BKN250 M24/M28 A2977=
METAR PAFA 221353Z 00000KT 10SM FEW010 FEW060 BKN250 M23/M27 A2975
 RMK AO2 SLP090 POWER PLANT PLUME FEW010 T12281267=
METAR PAFA 221353Z 00000KT 10SM FEW010 FEW060 BKN250 M23/M27 A2975=
METAR PAFA 221253Z 00000KT 10SM FEW010 FEW070 BKN250 M22/M26 A2973 RMK
     AO2 SLP082 POWER PLANT PLUME FEW010 T12221256=
METAR PAFA 221253Z 00000KT 10SM FEW010 FEW070 BKN250 M22/M26 A2973=


National Weather Service
Anchorage Forecast Office
6930 Sand Lake Road
Anchorage, Ak 99502
(907) 266-5105 M-F/7-5pm
About Us
Career Opportunities
Glossary
Disclaimer
Privacy Policy
Credits
Alaska Weather Information Line:
1-800-472-0391